This is the latest recevied weather packets stored in our database for station/object SP3SWJ-13. If no packets are shown the sender has not sent any weather packets the latest 10 day(s).
| Time | Temp. | Humidity | Pressure | Rain* | Wind** | Luminosity | Snow |
|---|---|---|---|---|---|---|---|
| 1777484382 | 10.56° C | 35% | 1020.2 hPa | - | - | 12 W/m² | - |
| 1777484082 | 10.56° C | 33% | 1020.2 hPa | - | - | 16 W/m² | - |
| 1777483780 | 11.11° C | 33% | 1020.2 hPa | - | - | 18 W/m² | - |
| 1777483479 | 11.11° C | 33% | 1020.3 hPa | - | - | 18 W/m² | - |
| 1777483178 | 12.22° C | 31% | 1020.2 hPa | - | - | 25 W/m² | - |
| 1777482878 | 11.67° C | 30% | 1020.2 hPa | - | - | 29 W/m² | - |
| 1777482576 | 12.22° C | 32% | 1020.2 hPa | - | - | 32 W/m² | - |
| 1777482275 | 11.67° C | 31% | 1020.2 hPa | - | - | 36 W/m² | - |
| 1777481974 | 11.11° C | 32% | 1020.1 hPa | - | - | 38 W/m² | - |
| 1777481673 | 11.67° C | 32% | 1020.1 hPa | - | - | 42 W/m² | - |
| 1777481373 | 10.56° C | 33% | 1020.1 hPa | - | - | 47 W/m² | - |
| 1777481072 | 10.56° C | 33% | 1020.1 hPa | - | - | 51 W/m² | - |
| 1777480771 | 10.56° C | 34% | 1020.2 hPa | - | - | 27 W/m² | - |
| 1777480470 | 10.56° C | 33% | 1020.1 hPa | - | - | 27 W/m² | - |
| 1777480169 | 10.56° C | 33% | 1020 hPa | - | - | 28 W/m² | - |
| 1777479868 | 10.56° C | 33% | 1020 hPa | - | - | 31 W/m² | - |
| 1777479567 | 11.11° C | 32% | 1020 hPa | - | - | 37 W/m² | - |
| 1777479266 | 11.11° C | 31% | 1020 hPa | - | - | 51 W/m² | - |
| 1777478965 | 11.11° C | 32% | 1020 hPa | - | - | 117 W/m² | - |
| 1777478664 | 12.22° C | 30% | 1020.1 hPa | - | - | 60 W/m² | - |
| 1777478363 | 12.22° C | 29% | 1020.1 hPa | - | - | 162 W/m² | - |
| 1777478062 | 12.22° C | 29% | 1020 hPa | - | - | 189 W/m² | - |
| 1777477762 | 13.33° C | 28% | 1020 hPa | - | - | 202 W/m² | - |
| 1777477461 | 12.78° C | 28% | 1020 hPa | - | - | 202 W/m² | - |
| 1777477159 | 13.33° C | 27% | 1020 hPa | - | - | 239 W/m² | - |
* Rain since midnight (hover to see other rain measurements)
** Current wind speed in m/s (hover to see current wind gust speed)